Location: Follega
(52.8850°N, 5.7362°E)
Time: 23:22:53
(UTC+00:00)

SL-4 R/B - Pass Details

Date: 01 June 2020
Orbit: 428 x 666 km, 51.6° (Epoch: 11 July)

Event Time Altitude Azimuth Distance (km) Brightness Sun altitude
Rises 22:20:05 0° 226° (SW) 2,961 5.5 -13.2°
Reaches altitude 10° 22:22:30 10° 219° (SW) 2,069 4.6 -13.3°
Maximum altitude 22:26:57 39° 151° (SSE) 1,002 2.8 -13.5°
Drops below altitude 10° 22:31:26 10° 83° (E) 2,086 4.9 -13.6°
Sets 22:33:53 0° 76° (ENE) 2,987 5.8 -13.7°
